Tracking 20242 objects as of 24-Jan-2020
HD Live streaming from Space Station
objects crossing your sky now

COSMOS 2251 DEB

Track COSMOS 2251 DEB now!
10-day predictions


NORAD ID: 33798
Int'l Code: 1993-036AP
Perigee: 691.6 km
Apogee: 825.8 km
Inclination: 74.0 °
Period: 99.9 minutes
Semi major axis: 7129 km
RCS: 0.048 m2 (small)
Launch date: June 16, 1993
Source: Commonwealth of Independent States (former USSR) (CIS)
Launch site: PLESETSK MISSILE AND SPACE COMPLEX (PKMTR)

Note: This is SATELLITE DEBRIS
aabbcc
Your satellite tracking list
Your tracking list is empty




NASA's NSSDC Master Catalog

Two Line Element Set (TLE):
1 33798U 93036AP  20023.51567932 +.00000014 +00000-0 +12067-4 0  9991
2 33798 074.0297 169.5339 0094095 097.5441 332.1151 14.42106993575815
Source of the keplerian elements: AFSPC